PSLV R/B

Satellite information

Favourite Embed

Satellite Type and Status

ROCKET BODYIN ORBIT

Key statistics

Satellite PSLV R/B at a glance.

Uptime

4026

Days in orbit

Revolutions

≈ 14.8

Per day

Orbit

SSO

Sun Synchronous Orbit

Inclination

98.3

Latest

Satellite identification and parameters

Extended collection of information and parameters for PSLV R/B.

Object identification

Identified? True

Debris? False

Object name: PSLV R/B

International designator: 2014-034F

Object number (NORAD): 40058

Object ID (CCSDS): 40058

Country: INDIA (IND)

Current information (Y/N): Y

RCS size: LARGE

Orbital parameters

Period: 97.07 minutes

Inclination: 98.3242 deg

SMA: 6996.544 km

Apoapsis: 632.917 km

Periapsis: 603.901 km

RAAN: 31.584 deg

Eccentricy: 0.0020736

Argument of periapsis: 10.6345 deg

Mean anomaly: 349.5302 deg

Mean motion: 14.83465223 rev/day

Mean motion (dot): 0.00000628 rev/day2

B* drag term: 0.000083333 1/REarth

Two-line elements (TLE)

Creation date: July 8, 2025, 2:27 a.m.

Reference frame: TEME

Reference center: EARTH

Epoch: July 7, 2025, 7:51 p.m. UTC

TLE line 0: 0 PSLV R/B

TLE line 1: 1 40058U 14034F 25188.82769244 .00000628 00000-0 83333-4 0 9995

TLE line 2: 2 40058 98.3242 31.5840 0020736 10.6345 349.5302 14.83465223595008

Live tracking on map

Real-time ground track for satellite PSLV R/B.

In-orbit conjunctions

A list of the most updated potential collisions computed for object PSLV R/B.

Target Orbit TCA Probability of collision Miss distance Type
CZ-6A DEB SSO 2025-05-22 07:23:53 0.0007735244 78.0 (m) DEBRIS
CZ-4B R/B SSO 2025-01-20 03:21:37 0.001366428 832.0 (m) ROCKET BODY
COSMOS 2251 DEB LEO 2024-08-11 13:24:32 0.0001063178 725.0 (m) DEBRIS

Associated space launch

PSLV R/B was lifted into orbit during the mission ‘PSLV-CA | SPOT-7, CanX-4, CanX-5, AISat, VELOX-I’, on board a PSLV space rocket.

The launch took place on June 30, 2014, 4:22 a.m. from Satish Dhawan Space Centre First Launch Pad.

For more information about the launch, click the button.

Launch to space PSLV-CA | SPOT-7, CanX-4, CanX-5, AISat, VELOX-I
PSLV-CA | SPOT-7, CanX-4, CanX-5, AISat, VELOX-I

Agency: N/A

Status: Launch Successful

Launch date: June 30, 2014, 4:22 a.m. UTC

Rocket: PSLV

Launch pad: Satish Dhawan Space Centre First Launch Pad

Location: Satish Dhawan Space Centre, India

...

Latest news about this satellite

There are no fresh news available about this satellite. Check back as we update our databases every day.


Newsletter sign-up

Weekly statistics, charts and insights to help you stay on top of the space industry.